Weather History for Newport, VT

Change the Weather History Date:

Thursday, September 20, 2012

  Actual Average Record
Temperature  
Mean Temperature 50 °F -  
Max Temperature 65 °F 68 °F 86 °F (1946)
Min Temperature 34 °F 44 °F 25 °F (1941)
Degree Days  
Heating Degree Days 16    
Moisture  
Dew Point 37 °F    
Average Humidity 63    
Maximum Humidity 87    
Minimum Humidity 35    
Precipitation  
Precipitation 0.00 in - - ()
Sea Level Pressure  
Sea Level Pressure 30.19 in    
Wind  
Wind Speed 5 mph (South)    
Max Wind Speed 13 mph    
Max Gust Speed 21 mph    
Visibility 9 miles    
Events Fog    
Averages and records for this station are not official NWS values.
T = Trace of Precipitation, MM = Missing Value Source: NWS Daily Summary

Daily Weather History Graph

Daily Weather History Graph

Search for Another Location

Airport:

Trip Planner

Search our weather history database for the weather conditions in past years. The results will help you decide how hot, cold, wet, or windy it might be!

Date:

Astronomy

Sep. 20, 2012 Rise Set
Actual Time 6:34 AM EDT 6:49 PM EDT
Civil Twilight 6:04 AM EDT 7:18 PM EDT
Nautical Twilight 5:30 AM EDT 7:52 PM EDT
Astronomical Twilight 4:54 AM EDT 8:28 PM EDT
Moon 12:04 PM EDT (9/20) 9:33 PM EDT (9/20)
Length of Visible Light 13h 13m
Length of Day
12h 15m
Waxing Crescent, 26% of the Moon is Illuminated
Sep 20
Waxing Crescent
Sep 22
First Quarter
Sep 29
Full
Oct 8
Last Quarter
Oct 15
New

Hourly Weather History & Observations

Time (EDT) Temp. Windchill Dew Point Humidity Pressure Visibility Wind Dir Wind Speed Gust Speed Precip Events Conditions
12:15 AM 39.6 °F 37.4 °F 34.9 °F 83% 30.24 in 10.0 mi SSW 3.5 mph - N/A   Clear
12:35 AM 40.3 °F 38.2 °F 35.6 °F 83% 30.25 in 10.0 mi South 3.5 mph - N/A   Clear
12:55 AM 40.6 °F - 36.1 °F 84% 30.24 in 10.0 mi Calm Calm - N/A   Clear
1:15 AM 40.5 °F - 35.6 °F 83% 30.25 in 10.0 mi Calm Calm - N/A   Clear
1:35 AM 39.2 °F 37.0 °F 34.3 °F 83% 30.25 in 10.0 mi SSW 3.5 mph - N/A   Clear
1:55 AM 38.7 °F 35.2 °F 34.0 °F 83% 30.25 in 10.0 mi SW 4.6 mph - N/A   Clear
2:15 AM 37.9 °F 34.4 °F 33.4 °F 84% 30.25 in 10.0 mi SW 4.6 mph - N/A   Clear
2:35 AM 38.3 °F 35.9 °F 33.8 °F 84% 30.25 in 10.0 mi SSW 3.5 mph - N/A   Clear
2:55 AM 37.9 °F 35.5 °F 33.6 °F 84% 30.24 in 10.0 mi SSW 3.5 mph - N/A   Clear
3:15 AM 38.1 °F 34.6 °F 33.8 °F 84% 30.25 in 10.0 mi SW 4.6 mph - N/A   Clear
3:35 AM 36.7 °F 32.0 °F 32.4 °F 84% 30.25 in 10.0 mi SW 5.8 mph - N/A   Clear
3:55 AM 36.7 °F - 32.4 °F 84% 30.26 in 5.0 mi Calm Calm - N/A   Haze
4:15 AM 35.6 °F 31.7 °F 31.8 °F 86% 30.25 in 7.0 mi SW 4.6 mph - N/A   Clear
4:35 AM 35.6 °F 30.7 °F 31.6 °F 85% 30.26 in 0.8 mi SW 5.8 mph - N/A   Haze
4:55 AM 35.4 °F 31.5 °F 31.6 °F 86% 30.27 in 3.0 mi SW 4.6 mph - N/A   Clear
5:15 AM 35.2 °F 30.3 °F 31.6 °F 87% 30.27 in 4.0 mi SW 5.8 mph - N/A   Clear
5:35 AM 34.7 °F 28.8 °F 31.1 °F 87% 30.27 in 0.5 mi SW 6.9 mph - N/A Fog Fog
5:55 AM 34.7 °F 30.6 °F 31.1 °F 87% 30.28 in 1.0 mi SW 4.6 mph - N/A   Mist
6:15 AM 35.4 °F 31.5 °F 31.6 °F 86% 30.28 in 10.0 mi SW 4.6 mph - N/A   Clear
6:35 AM 35.1 °F 32.2 °F 31.6 °F 87% 30.28 in 10.0 mi SW 3.5 mph - N/A   Clear
6:55 AM 34.3 °F 29.2 °F 30.9 °F 87% 30.28 in 0.8 mi SW 5.8 mph - N/A   Mist
7:35 AM 35.8 °F 30.9 °F 32.0 °F 86% 30.28 in 1.5 mi SW 5.8 mph - N/A   Mist
7:55 AM 37.8 °F 33.3 °F 33.6 °F 85% 30.28 in 10.0 mi SW 5.8 mph - N/A   Clear
8:35 AM 41.7 °F 39.8 °F 37.4 °F 85% 30.27 in 10.0 mi SW 3.5 mph - N/A   Clear
9:15 AM 46.8 °F - 40.3 °F 78% 30.27 in 10.0 mi Calm Calm - N/A   Clear
9:35 AM 49.8 °F - 41.2 °F 72% 30.27 in 10.0 mi Calm Calm - N/A   Clear
9:55 AM 50.9 °F - 42.1 °F 72% 30.27 in 10.0 mi SW 4.6 mph - N/A   Clear
10:35 AM 55.8 °F - 39.4 °F 54% 30.25 in 10.0 mi SSE 5.8 mph - N/A   Clear
10:55 AM 57.7 °F - 36.1 °F 44% 30.24 in 10.0 mi South 5.8 mph - N/A   Clear
11:15 AM 58.8 °F - 35.8 °F 42% 30.23 in 10.0 mi SSE 9.2 mph - N/A   Clear
11:55 AM 60.3 °F - 35.1 °F 39% 30.21 in 10.0 mi SSE 9.2 mph 18.4 mph N/A   Clear
12:15 PM 61.3 °F - 36.3 °F 39% 30.20 in 10.0 mi SSE 10.4 mph - N/A   Clear
12:35 PM 61.7 °F - 35.6 °F 38% 30.19 in 10.0 mi SE 10.4 mph - N/A   Clear
12:55 PM 62.6 °F - 37.9 °F 40% 30.18 in 10.0 mi SSE 10.4 mph 20.7 mph N/A   Clear
1:15 PM 63.5 °F - 37.2 °F 38% 30.17 in 10.0 mi SSE 9.2 mph - N/A   Clear
1:35 PM 63.7 °F - 37.4 °F 38% 30.17 in 10.0 mi SE 9.2 mph - N/A   Clear
1:55 PM 63.1 °F - 35.2 °F 35% 30.16 in 10.0 mi SSE 8.1 mph - N/A   Clear
2:15 PM 64.2 °F - 37.4 °F 37% 30.15 in 10.0 mi SE 12.7 mph 16.1 mph N/A   Clear
2:55 PM 64.6 °F - 37.2 °F 36% 30.15 in 10.0 mi SE 12.7 mph 18.4 mph N/A   Clear
3:15 PM 65.1 °F - 37.8 °F 36% 30.14 in 10.0 mi SE 11.5 mph 19.6 mph N/A   Clear
3:35 PM 65.1 °F - 37.2 °F 36% 30.13 in 10.0 mi SSE 12.7 mph - N/A   Clear
3:55 PM 64.9 °F - 37.8 °F 37% 30.13 in 10.0 mi SSE 10.4 mph 16.1 mph N/A   Clear
4:15 PM 64.6 °F - 36.9 °F 36% 30.13 in 10.0 mi SSE 10.4 mph - N/A   Clear
4:55 PM 64.4 °F - 37.2 °F 37% 30.12 in 10.0 mi SE 11.5 mph 16.1 mph N/A   Clear
5:15 PM 64.0 °F - 37.2 °F 37% 30.12 in 10.0 mi SSE 6.9 mph - N/A   Clear
5:35 PM 63.0 °F - 37.0 °F 38% 30.12 in 10.0 mi SE 10.4 mph - N/A   Clear
5:55 PM 61.7 °F - 38.1 °F 42% 30.12 in 10.0 mi SSE 11.5 mph - N/A   Clear
6:15 PM 60.4 °F - 38.3 °F 44% 30.12 in 10.0 mi SSE 8.1 mph - N/A   Clear
6:35 PM 58.3 °F - 39.2 °F 49% 30.12 in 10.0 mi SSE 6.9 mph - N/A   Clear
6:55 PM 56.7 °F - 39.2 °F 52% 30.12 in 10.0 mi SSE 6.9 mph - N/A   Clear
7:15 PM 55.8 °F - 39.2 °F 54% 30.12 in 10.0 mi SSE 6.9 mph - N/A   Clear
7:35 PM 53.6 °F - 39.2 °F 58% 30.12 in 10.0 mi SE 4.6 mph - N/A   Clear
7:55 PM 53.6 °F - 39.4 °F 59% 30.12 in 10.0 mi SSE 4.6 mph - N/A   Clear
8:15 PM 52.9 °F - 39.7 °F 61% 30.12 in 10.0 mi SSW 3.5 mph - N/A   Clear
8:35 PM 54.1 °F - 39.7 °F 58% 30.12 in 10.0 mi SSW 3.5 mph - N/A   Clear
8:55 PM 54.5 °F - 40.1 °F 58% 30.12 in 10.0 mi SSW 3.5 mph - N/A   Clear
9:15 PM 52.7 °F - 40.3 °F 63% 30.12 in 10.0 mi SSW 5.8 mph - N/A   Clear
9:35 PM 53.6 °F - 40.1 °F 60% 30.11 in 10.0 mi South 3.5 mph - N/A   Clear
9:55 PM 52.0 °F - 40.1 °F 64% 30.12 in 10.0 mi SSW 4.6 mph - N/A   Clear
10:15 PM 52.5 °F - 40.5 °F 64% 30.11 in 10.0 mi South 5.8 mph - N/A   Clear
10:35 PM 52.7 °F - 40.3 °F 63% 30.11 in 10.0 mi South 4.6 mph - N/A   Clear
10:55 PM 52.0 °F - 40.3 °F 64% 30.11 in 10.0 mi South 4.6 mph - N/A   Clear
11:15 PM 52.2 °F - 40.3 °F 64% 30.11 in 10.0 mi South 5.8 mph - N/A   Clear
11:35 PM 51.8 °F - 40.3 °F 65% 30.12 in 10.0 mi South 4.6 mph - N/A   Clear
11:55 PM 51.8 °F - 41.0 °F 67% 30.11 in 10.0 mi South 4.6 mph - N/A   Clear